[[[{"header":{"parameterUnit":"kt","parameterCategory":2,"dx":1,"dy":1,"la1":30.253999710083008,"la2":30.299108505249023,"lo1":-89.0895004272461,"lo2":-89.04439544677734,"nx":28,"ny":28,"refTime":"2022-10-27T21:00:00:Z","depth":0,"parameterNumber":1,"parameterNumberName":"U-component_of_WINDS"},"data":[-14.2332,-14.25,-14.2496,-14.2688,-14.2717,-14.2847,-14.2892,-14.2951,-14.2998,-14.3156,-14.3246,-14.3262,-14.3307,-14.3416,-14.3516,-14.352,-14.3559,-14.3624,-14.3617,-14.3335,-14.3295,-14.3257,-14.3211,-14.3635,-14.3635,-14.3905,-14.3908,-14.391,-14.2127,-14.2156,-14.2257,-14.235,-14.2437,-14.2373,-14.2444,-14.2519,-14.2639,-14.2699,-14.2787,-14.2927,-14.3037,-14.3062,-14.3168,-14.3249,-14.3223,-14.3277,-14.3266,-14.3273,-14.2974,-14.2927,-14.3296,-14.3296,-14.3296,-14.3296,-14.3296,-14.3296,-14.1752,-14.1854,-14.1906,-14.2014,-14.2061,-14.2125,-14.2222,-14.2235,-14.2335,-14.2441,-14.2419,-14.2555,-14.2614,-14.2739,-14.2781,-14.2888,-14.2826,-14.2884,-14.2896,-14.2908,-14.2921,-14.2522,-14.2908,-14.2907,-14.2906,-14.2905,-14.2904,0,-14.1472,-14.146,-14.1555,-14.1649,-14.1729,-14.1802,-14.1868,-14.1929,-14.1902,-14.1986,-14.2107,-14.2176,-14.2315,-14.2428,-14.2527,-14.2557,-14.2495,-14.2492,-14.253,-14.2535,-14.253,-14.2528,-14.2033,-14.2478,-14.2474,-14.2471,-14.2469,-14.2468,-14.1085,-14.1208,-14.1259,-14.1327,-14.136,-14.1472,-14.1537,-14.1503,-14.1574,-14.1652,-14.1746,-14.186,-14.1947,-14.2147,-14.216,-14.2264,-14.2233,-14.2402,-14.2248,-14.2252,-14.2226,-14.2215,-14.2225,-14.2429,-14.2434,-14.2438,-14.2442,0,-14.0867,-14.0855,-14.1041,-14.1079,-14.1093,-14.1223,-14.1256,-14.1359,-14.136,-14.1502,-14.1533,-14.1533,-14.1654,-14.164,-14.1777,-14.1766,-14.1981,-14.1954,-14.1959,-14.195,-14.2095,-14.2078,-14.258,-14.2641,-14.2212,-14.2216,-14.222,0,-14.0528,-14.0691,-14.066,-14.0769,-14.095,-14.0907,-14.1087,-14.1104,-14.115,-14.1261,-14.1189,-14.1295,-14.126,-14.1366,-14.135,-14.1525,-14.1552,-14.1551,-14.1543,-14.1552,-14.1551,-14.1583,-14.1558,-14.153,-14.1527,-14.1525,-14.1523,0,-14.018,-14.0356,-14.0534,-14.0571,-14.0626,-14.0712,-14.074,-14.079,-14.0855,-14.0937,-14.0978,-14.108,-14.1133,-14.1214,-14.1189,-14.1084,-14.1405,-14.1255,-14.1402,-14.1403,-14.1466,-14.1461,-14.1917,-14.152,-14.1519,-14.1518,-14.1517,0,-13.9899,-13.9979,-14.0242,-14.0283,-14.0331,-14.0451,-14.0542,-14.0641,-14.07,-14.0694,-14.076,-14.0705,-14.086,-14.0712,-14.0924,-14.0792,-14.0851,-14.0865,-14.0875,-14.0879,-14.0711,-14.096,-14.1404,-14.1445,-14.0896,-14.0891,-14.0887,0,-13.9501,-13.9761,-13.9723,-13.9975,-14.009,-13.9993,-14.0127,-14.018,-14.0184,-14.0284,-14.029,-14.0406,-14.0293,-14.0325,-14.0434,-14.0443,-14.0615,-14.0421,-14.0564,-14.0569,-14.0541,-14.0952,-14.1015,-14.131,-14.0821,-14.0827,-14.0832,0,-13.9188,-13.9249,-13.9296,-13.9334,-13.9395,-13.9493,-13.9648,-13.975,-13.9818,-13.9889,-14.0013,-14.0181,-14.0099,-14.0156,-14.0122,-14.0235,-14.0498,-14.0132,-14.0133,-14.0193,-14.0788,-14.0847,-14.0897,-14.0451,-14.0459,-14.0465,-14.078,0,-13.8754,-13.8882,-13.9012,-13.9099,-13.9172,-13.933,-13.9304,-13.9385,-13.9342,-13.9339,-13.9528,-13.9567,-13.9674,-13.9728,-13.9689,-13.9954,-13.9905,-13.9817,-13.9663,-13.9936,-14.0038,-14.0081,-13.9513,-13.9508,-13.9504,-13.9501,0,0,-13.8372,-13.8553,-13.8504,-13.8647,-13.8704,-13.8597,-13.8766,-13.8811,-13.8903,-13.8945,-13.8862,-13.91,-13.9135,-13.9365,-13.9449,-13.9495,-13.9539,-13.9443,-13.9808,-13.9843,-13.9874,-13.9985,-14.0029,-13.9494,-13.9493,-13.9491,-13.949,0,-13.8204,-13.824,-13.8408,-13.845,-13.851,-13.8498,-13.8539,-13.8579,-13.8585,-13.8768,-13.8676,-13.8787,-13.8979,-13.9026,-13.9076,-13.9418,-13.934,-13.9455,-13.9642,-13.977,-13.981,-13.9845,-13.9961,-14.0004,-13.9481,-13.9481,-13.9482,0,-13.7885,-13.7914,-13.7992,-13.8116,-13.8154,-13.8278,-13.8111,-13.825,-13.8341,-13.8216,-13.8398,-13.8417,-13.8479,-13.8702,-13.8801,-13.8726,-13.9159,-13.9021,-13.9045,-13.9052,-13.9175,-13.9222,-13.9265,-13.8704,-13.8702,-13.8699,0,0,-13.7744,-13.7862,-13.7878,-13.8078,-13.8108,-13.8091,-13.8154,-13.8115,-13.8171,-13.8194,-13.8213,-13.8273,-13.8383,-13.8457,-13.856,-13.8809,-13.8816,-13.8926,-13.8962,-13.8992,-13.9017,-13.9147,-13.9194,-13.8689,-13.8689,-13.8689,0,0,-13.7675,-13.77,-13.7644,-13.7872,-13.7928,-13.7957,-13.808,-13.8013,-13.8101,-13.8079,-13.8022,-13.8035,-13.8243,-13.8265,-13.8135,-13.8503,-13.8354,-13.8384,-13.8479,-13.8525,-13.8561,-13.8548,-13.7966,0,0,0,0,0,-13.7487,-13.7696,-13.7646,-13.7679,-13.7836,-13.7985,-13.8005,-13.7959,-13.7853,-13.7952,-13.7958,-13.7871,-13.8182,-13.8065,-13.8101,-13.8244,-13.8561,-13.8584,-13.8605,-13.8787,-13.8835,-13.8876,0,0,0,0,0,0,-13.7499,-13.7541,-13.764,-13.7678,-13.7713,-13.7977,-13.7786,-13.7779,-13.7841,-13.7821,-13.7872,-13.7872,-13.7838,-13.8044,-13.8077,-13.8214,-13.7955,-13.857,-13.8589,-13.8607,-13.8803,-13.8843,-13.8877,0,0,0,0,0,-13.7509,-13.7543,-13.7805,-13.7675,-13.7705,-13.7695,-13.7778,-13.777,-13.7817,-13.7825,-13.7822,-13.7777,-13.7843,-13.7868,-13.8063,-13.82,-13.7932,-13.7944,-13.8583,-13.8598,-13.8611,-13.8823,0,0,0,0,0,0,-13.7517,-13.7538,-13.781,-13.7817,-13.759,-13.7679,-13.7691,-13.7763,-13.7816,-13.7815,-13.7726,-13.771,-13.785,-13.7867,-13.7887,-13.8197,-13.7913,-13.7926,-13.7934,-13.8594,-13.8606,-13.8617,0,0,0,0,0,0,-13.752,-13.7546,-13.7814,-13.7709,-13.7704,-13.7665,-13.7675,-13.7836,-13.7819,-13.7714,-13.7702,-13.7718,-13.7821,-13.7869,-13.7883,-13.8135,-13.7898,-13.7911,-13.7919,-13.7924,-13.8604,-13.8613,0,0,0,0,0,0,-13.753,-13.7552,-13.7707,-13.7704,-13.7699,-13.778,-13.7805,-13.7969,-13.7727,-13.7713,-13.7704,-13.7694,-13.7825,-13.7838,-13.7881,-13.8128,-13.8133,-13.7899,-13.7907,-13.7913,-13.7917,0,0,0,0,0,0,0,-13.7538,-13.7401,-13.7765,-13.7699,-13.7694,-13.7887,-13.7889,-13.7891,-13.7725,-13.7715,-13.7706,-13.7698,-13.7829,-13.7842,-13.7856,-13.8121,0,0,-13.7898,-13.7904,0,0,0,0,0,0,0,0,-13.7391,-13.7399,-13.7765,-13.7767,-13.7768,-13.7888,-13.7889,-13.7891,-13.7723,-13.7716,-13.7708,-13.7701,-13.7833,-13.7843,-13.7854,0,0,0,0,0,0,0,0,0,0,0,0,0,0,0,-13.7765,-13.7767,0,-13.7888,-13.7889,-13.7891,-13.7722,-13.7716,-13.771,-13.7704,-13.7836,-13.7844,-13.7853,0,0,0,0,0,0,0,0,0,0,0,0,0,0,0,0,0,0,0,0,0,0,0,0,0,0,0,0,0,0,0,0,0,0,0,0,0,0,0,0,0,0,0,0,0,0,0,0,0,0,0,0,0,0,0,0,0,0,0,0,0,0,0,0,0,0,0,0,0]}],[{"header":{"parameterUnit":"kt","parameterCategory":2,"dx":1,"dy":1,"la1":30.253999710083008,"la2":30.299108505249023,"lo1":-89.0895004272461,"lo2":-89.04439544677734,"nx":28,"ny":28,"refTime":"2022-10-27T21:00:00:Z","depth":0,"parameterNumber":2,"parameterNumberName":"V-component_of_WINDS"},"data":[1.6953,1.6849,1.6738,1.6566,1.6436,1.6297,1.621,1.6086,1.5956,1.5772,1.5645,1.5516,1.5336,1.5152,1.5004,1.4947,1.4893,1.4941,1.4866,1.4762,1.474,1.4719,1.4739,1.493,1.4931,1.4991,1.4991,1.4992,1.6892,1.6765,1.6641,1.6444,1.6336,1.6224,1.6055,1.5971,1.5847,1.5685,1.5553,1.5379,1.5224,1.5022,1.4851,1.4794,1.4728,1.4757,1.4759,1.4732,1.4616,1.4639,1.4813,1.4813,1.4813,1.4813,1.4813,1.4813,1.6751,1.6693,1.6509,1.6372,1.6241,1.6108,1.603,1.5874,1.5747,1.556,1.5443,1.5298,1.5109,1.4843,1.4723,1.4603,1.4549,1.4541,1.4538,1.454,1.456,1.4493,1.4567,1.4566,1.4565,1.4564,1.4563,0,1.6613,1.6524,1.6396,1.6236,1.6128,1.5989,1.5842,1.579,1.5551,1.5454,1.5304,1.5196,1.4981,1.4823,1.4634,1.4507,1.4374,1.4345,1.4339,1.4396,1.4474,1.4433,1.4252,1.4344,1.4341,1.4339,1.4338,1.4337,1.6465,1.6408,1.6158,1.6083,1.5974,1.5854,1.5759,1.5552,1.5458,1.5242,1.5196,1.5035,1.4895,1.4667,1.4475,1.4311,1.4244,1.4293,1.4218,1.4276,1.4245,1.4252,1.4244,1.4312,1.4315,1.4318,1.432,0,1.6392,1.6205,1.6079,1.5832,1.5769,1.5719,1.5504,1.5433,1.5285,1.5166,1.5125,1.4891,1.4743,1.4541,1.4328,1.4227,1.4135,1.4073,1.4201,1.4178,1.4202,1.4204,1.4311,1.4315,1.4112,1.4114,1.4116,0,1.6191,1.6123,1.5847,1.5784,1.57,1.5494,1.5415,1.528,1.5114,1.5018,1.4835,1.4748,1.4502,1.4384,1.4234,1.4122,1.4081,1.3997,1.3958,1.4014,1.4025,1.3958,1.3949,1.387,1.3869,1.3869,1.3869,0,1.6098,1.5867,1.5764,1.568,1.5407,1.5362,1.5245,1.5056,1.4961,1.4805,1.4741,1.4573,1.448,1.4351,1.4161,1.4118,1.4019,1.392,1.3932,1.3937,1.392,1.3924,1.4071,1.3868,1.3868,1.3868,1.3868,0,1.5906,1.5759,1.5635,1.5404,1.535,1.5279,1.5103,1.4995,1.4808,1.471,1.4584,1.4437,1.4322,1.4239,1.4077,1.4076,1.3994,1.3901,1.3898,1.3876,1.3789,1.39,1.406,1.4069,1.3856,1.3856,1.3855,0,1.5852,1.5676,1.5497,1.5382,1.5272,1.5077,1.4992,1.4833,1.4695,1.4578,1.4422,1.4289,1.4184,1.4113,1.406,1.3892,1.3894,1.3886,1.3715,1.3712,1.3775,1.3919,1.3994,1.4048,1.3851,1.3852,1.3852,0,1.5786,1.5456,1.5448,1.5344,1.5101,1.5005,1.4909,1.4733,1.4666,1.4503,1.4415,1.4221,1.4134,1.4019,1.3879,1.3834,1.3886,1.3745,1.3736,1.3779,1.3831,1.3904,1.3914,1.3802,1.3802,1.3802,1.3849,0,1.5542,1.5427,1.5397,1.5172,1.5067,1.4982,1.477,1.4686,1.4565,1.442,1.4286,1.4095,1.391,1.3866,1.3744,1.3705,1.3679,1.3587,1.349,1.3586,1.3596,1.36,1.3494,1.3489,1.3486,1.3483,0,0,1.5538,1.5369,1.5173,1.5073,1.4972,1.4768,1.4696,1.4572,1.4328,1.4261,1.4206,1.3906,1.3752,1.361,1.3623,1.3547,1.352,1.3493,1.3542,1.355,1.3556,1.3571,1.3578,1.3477,1.3475,1.3474,1.3473,0,1.5405,1.5261,1.5194,1.5059,1.4851,1.4701,1.4686,1.4442,1.4345,1.4211,1.404,1.3932,1.3696,1.3556,1.3455,1.3506,1.3381,1.3465,1.3567,1.3515,1.3527,1.3537,1.3555,1.3564,1.3465,1.3465,1.3465,0,1.5303,1.5126,1.5071,1.4833,1.4693,1.4583,1.4431,1.432,1.4234,1.4009,1.3879,1.3744,1.3537,1.3431,1.3374,1.3321,1.3267,1.3244,1.326,1.3248,1.3187,1.3202,1.3216,1.304,1.3039,1.3039,0,0,1.5216,1.5108,1.485,1.4788,1.4713,1.4487,1.4406,1.4275,1.4098,1.4028,1.3851,1.3681,1.354,1.3452,1.3309,1.3221,1.3161,1.3201,1.3221,1.3238,1.3237,1.318,1.3195,1.3036,1.3036,1.3036,0,0,1.5173,1.4874,1.4784,1.4685,1.4525,1.4263,1.4231,1.4112,1.3962,1.3948,1.3716,1.3661,1.3556,1.3428,1.3425,1.327,1.3178,1.3174,1.3358,1.3379,1.3399,1.3432,1.3239,0,0,0,0,0,1.4928,1.4912,1.4833,1.4785,1.4478,1.4309,1.4267,1.4079,1.402,1.4,1.3832,1.3703,1.3379,1.3372,1.3324,1.3329,1.3009,1.3014,1.3019,1.3233,1.3258,1.328,0,0,0,0,0,0,1.4907,1.4849,1.4832,1.4575,1.4504,1.4307,1.4166,1.4113,1.4018,1.3996,1.374,1.3694,1.3528,1.3382,1.3343,1.3351,1.3252,1.3011,1.3015,1.3019,1.3241,1.3262,1.328,0,0,0,0,0,1.489,1.4843,1.4402,1.4573,1.4512,1.4258,1.4165,1.412,1.4042,1.3782,1.3733,1.3909,1.3533,1.3486,1.3358,1.3374,1.3278,1.3264,1.3014,1.3017,1.302,1.3252,0,0,0,0,0,0,1.4877,1.4798,1.4385,1.4359,1.4565,1.4265,1.4212,1.4127,1.383,1.3782,1.394,1.3926,1.3537,1.3499,1.3465,1.3393,1.3299,1.3284,1.3276,1.3016,1.3019,1.3021,0,0,0,0,0,0,1.4822,1.4778,1.4372,1.4373,1.4345,1.4273,1.4225,1.4087,1.3829,1.4003,1.3983,1.3937,1.3587,1.3509,1.3481,1.3272,1.3315,1.3301,1.3292,1.3286,1.3018,1.302,0,0,0,0,0,0,1.48,1.4762,1.4378,1.4357,1.4332,1.4026,1.4146,1.3841,1.3836,1.402,1.3829,1.3827,1.36,1.3568,1.3494,1.3298,1.3279,1.3315,1.3305,1.3299,1.3294,0,0,0,0,0,0,0,1.4782,1.5084,1.454,1.4344,1.4322,1.412,1.4112,1.4105,1.3835,1.3833,1.383,1.3828,1.3393,1.3378,1.3363,1.3319,0,0,1.3316,1.3309,0,0,0,0,0,0,0,0,1.5095,1.5087,1.4539,1.4534,1.4529,1.4119,1.4113,1.4107,1.3835,1.3833,1.3831,1.3829,1.3389,1.3377,1.3365,0,0,0,0,0,0,0,0,0,0,0,0,0,0,0,1.4539,1.4534,0,1.4118,1.4113,1.4108,1.3835,1.3833,1.3831,1.383,1.3386,1.3376,1.3366,0,0,0,0,0,0,0,0,0,0,0,0,0,0,0,0,0,0,0,0,0,0,0,0,0,0,0,0,0,0,0,0,0,0,0,0,0,0,0,0,0,0,0,0,0,0,0,0,0,0,0,0,0,0,0,0,0,0,0,0,0,0,0,0,0,0,0,0,0]}]]]